Location: Passau
(48.5830°N, 13.4830°E)
Time: 05:39:57
(UTC+02:00)

Vanguard 1 - Pass Details

Date: 01 August 2021
Orbit: 652 x 3831 km, 34.3° (Epoch: 16 September)

Event Time Altitude Azimuth Distance (km) Brightness Sun altitude
Rises 17:30:27 0° 259° (W) 4,484 14.6 30.1°
Reaches altitude 10° 17:34:32 10° 240° (WSW) 3,995 14.4 29.4°
Maximum altitude 17:40:46 17° 204° (SSW) 4,162 13.8 28.4°
Drops below altitude 10° 17:49:07 10° 172° (S) 5,560 13.9 27.0°
Sets 17:56:52 0° 156° (SSE) 7,206 14.3 25.7°
